SCP
0 0 0 0 0 0 0 0 0 0 0 0 0 0 0 0 0 0 0 0 0 0 0 0 0 0 0 0 0 0 0 0 0 0 0 0 0 0 0 0 0 0 0 0
0 0 0 0 0 0 0 0 0 0 0 0 0 0 0 0 0 0 0 0 0 0 0 0 0 0 0 0 0 0 0 0 0 0 0 0 0 0 0 0 0 0 0 0
0 0 0 0 0 0 0 0 0 0 0 0 0 0 0 0 0 0 0 0 0 0 0 0 0 0 0 0 0 0 0 0 0 0 0 0 0 0 0 0 0 0 0 0
0 0 0 0 0 0 0 0 0 0 0 0 0 0 0 0 0 0 0 0 0 0 0 0 0 0 0 0 0 0 0 0 0 0 0 0 0 0 0 0 0 0 0 0
0 0 0 0 0 0 0 0 0 0 0 0 0 0 0 0 0 0 0 0 0 0 0 0 0 0 0 0 0 0 0 0 0 0 0 0 0 0 0 0 0 0 0 0
0 0 0 0 0 0 0 0 0 0 0 0 0 0 0 0 0 0 0 0 0 0 0 0 0 0 0 0 0 0 0 0 0 0 0 0 0 0 0 0 0 0 0 0
0 0 0 0 0 0 0 0 0 0 0 0 0 0 0 -0 -0 0 0 0 0 0 0 0 0 0 0 0 0 0 0 0 0 0 0 0 0 0 0 0 -0 0 0 0
0 0 0 0 0 0 0 0 0 0 0 0 0 0 0 -0 -0 -0 0 0 0 0 0 0 0 0 0 0 0 0 0 0 0 0 0 0 0 0 0 -0 -0 0 0 0
0 0 0 0 0 0 0 0 0 0 0 0 0 0 0 0 -0 0 0 0 0 0 0 0 0 0 0 0 0 0 0 0 0 0 0 0 -0 -0 -0 -0 0 0 0 0
0 0 0 0 0 0 0 0 0 0 0 0 0 0 0 0 0 0 0 0 0 0 0 0 0 0 0 0 0 0 0 0 0 0 0 -0 -0 -0 -0 -0 0 0 0 0
0 0 0 0 0 0 0 0 0 0 0 0 0 0 0 0 0 0 -0 0 0 0 0 0 0 0 0 0 0 0 0 0 0 0 0 -0 -0 -0 -0 -0 0 0 0 0
0 0 0 0 0 0 0 0 0 0 0 0 0 0 0 0 0 0 0 0 0 0 0 0 0 0 0 0 0 0 0 0 0 0 -0 -0 -0 -0 -0 -0 -0 0 0 0
0 0 0 0 0 0 0 0 0 0 0 0 0 0 0 0 0 0 0 0 0 0 0 0 0 0 0 0 0 0 0 0 0 -0 -0 0 0 0 0 0 -0 0 0 0
0 0 0 0 0 0 0 0 0 0 0 0 0 0 0 0 0 0 0 0 0 0 0 0 0 0 0 0 0 0 0 0 0 -0 0 0 0 0 0 0 0 0 0 0
0 0 0 0 0 0 0 0 0 0 0 0 0 0 0 0 0 0 0 0 0 0 0 0 0 0 0 0 0 0 0 0 -0 0 0 0 0 0 0 0 0 0 0 0
0 0 0 0 0 0 0 0 0 0 0 0 0 0 0 0 0 0 0 0 0 0 0 0 0 0 0 0 0 0 0 0 -0 0 0 0 0 0 0 0 0 0 0 0
0 0 0 0 0 0 0 0 0 0 0 0 0 0 0 0 0 0 0 0 0 0 0 0 0 0 0 0 0 0 0 0 0 0 0 0 0 0 0 0 0 0 0 0
0 0 0 0 0 0 0 0 0 0 0 0 0 0 0 0 0 0 0 0 0 0 0 0 0 0 0 0 0 0 0 0 0 0 0 0 0 0 0 0 0 0 0 0
0 0 0 0 0 0 0 0 0 0 0 0 0 0 0 0 0 0 0 0 0 0 0 0 0 0 0 0 0 0 0 0 0 0 0 0 0 0 0 0 0 0 0 0
0 0 0 0 0 0 0 0 0 0 0 0 0 0 0 0 0 0 0 0 0 0 0 0 0 0 0 0 0 0 0 0 0 0 0 0 0 0 0 0 0 0 0 0
0 0 0 0 0 0 0 0 0 0 0 0 0 0 0 0 0 0 0 0 0 0 0 0 0 0 0 0 0 0 0 0 0 0 0 0 0 0 0 0 0 0 0 0
0 0 0 0 0 0 0 0 0 0 0 0 0 0 0 0 0 0 0 0 0 0 0 0 0 0 0 0 0 0 0 0 0 0 0 0 0 0 0 0 0 0 0 0
0 0 0 0 0 0 0 0 0 0 0 0 0 0 0 0 0 0 0 0 0 0 0 0 0 0 0 0 0 0 0 0 0 0 0 0 0 0 0 0 0 0 0 0
0 0 0 0 0 0 0 -0 -0 0 0 0 0 0 0 -0 -0 -0 0 0 0 0 0 0 0 0 0 0 0 0 0 0 0 0 0 0 0 0 0 0 0 0 0 0
0 0 0 0 0 0 0 -0 -0 -0 0 0 0 0 0 -0 -0 -0 0 0 0 0 0 0 0 0 0 0 0 0 0 0 0 0 0 0 0 0 0 0 0 0 0 0
0 0 0 0 0 0 0 0 0 -0 -0 -0 0 0 0 0 -0 0 0 0 0 0 0 0 0 0 0 0 0 0 0 0 0 0 0 0 0 0 0 0 0 0 0 0
Wind_Speed
3 5 3 5 5 4 5 3 2 3 2 3 3 4 4 5 5 5 5 5 5 5 3 2 2 3 3 3 3 4 4 4 3 2 2 2 2 1 2 2 3 3 3 3
4 1 4 4 4 4 4 3 1 1 1 3 2 4 3 5 7 8 8 8 7 5 3 3 3 3 4 4 4 3 3 4 3 2 2 2 2 1 1 2 3 3 3 3
4 4 3 4 4 4 2 4 4 3 0 2 1 3 3 4 5 5 6 6 7 8 7 6 5 4 4 4 5 5 4 3 3 3 3 3 3 2 2 2 2 3 3 3
2 2 3 4 3 4 2 4 4 3 2 1 1 3 6 4 4 7 8 7 8 7 7 6 6 5 5 5 5 5 4 4 3 3 4 4 3 2 0 0 1 2 3 3
2 2 4 4 5 5 4 2 3 2 2 1 0 1 7 1 5 9 10 10 9 9 8 8 8 7 5 5 5 4 4 4 3 3 4 4 3 2 1 1 2 2 3 3
2 2 3 4 2 4 5 6 5 5 4 1 3 3 7 4 7 7 9 10 10 9 9 8 6 5 4 4 4 5 5 4 4 4 4 4 4 3 2 1 1 1 1 2
1 1 1 3 4 2 4 6 3 3 3 4 2 3 9 6 6 8 9 11 10 9 8 7 7 6 6 6 5 5 6 5 4 4 4 4 4 4 3 2 2 1 0 1
3 3 3 3 5 5 4 7 6 4 3 4 1 5 8 5 4 5 5 6 8 8 8 9 9 8 7 7 7 6 6 5 5 4 4 3 3 3 2 2 2 2 1 1
5 4 2 2 3 8 6 3 5 5 2 1 4 6 8 3 2 0 3 5 7 9 9 9 8 8 8 8 8 8 7 5 5 5 5 4 4 3 3 2 2 2 1 1
6 3 2 1 4 3 5 7 5 4 3 2 4 4 5 5 3 1 3 6 7 7 8 8 8 8 8 7 6 6 7 7 6 5 5 4 4 4 3 3 2 2 2 2
4 4 1 1 4 5 4 4 4 4 4 5 2 7 5 5 4 4 5 5 7 8 8 8 7 7 6 6 6 6 6 5 5 5 4 4 4 3 3 3 3 2 2 2
2 5 2 4 3 3 5 6 7 5 3 4 3 8 5 4 4 3 4 4 5 6 6 7 7 6 6 6 6 6 6 6 6 5 5 4 4 4 3 3 3 3 3 3
4 5 3 3 3 0 2 3 4 5 5 4 4 7 4 2 1 2 2 3 3 4 4 4 5 6 6 6 6 6 6 6 5 5 5 4 4 4 4 4 3 3 3 3
5 4 6 8 6 4 3 4 5 6 4 4 7 7 6 4 3 2 2 3 4 4 5 5 5 6 6 6 6 6 6 6 6 5 5 5 5 5 4 4 3 3 3 3
4 3 3 4 4 4 4 6 7 7 8 8 8 7 9 6 5 4 3 3 4 4 5 5 6 6 6 5 5 5 5 5 6 6 6 6 5 4 4 4 4 3 3 4
3 3 2 2 2 3 4 6 8 7 6 6 5 8 7 4 2 2 4 5 6 6 6 6 6 6 6 7 6 6 6 5 6 6 6 4 4 4 4 4 3 3 3 3
3 4 3 2 2 0 6 8 9 7 6 8 9 9 3 2 4 6 6 7 8 8 7 7 8 8 7 8 8 7 7 5 6 5 5 4 5 5 4 4 4 4 4 3
5 5 3 2 1 6 9 4 7 7 6 6 5 4 5 6 5 4 5 7 7 7 7 7 7 7 6 6 6 6 5 6 6 5 5 5 5 5 4 4 4 3 3 3
5 6 4 3 3 6 7 3 5 6 5 5 5 4 4 1 1 3 4 6 7 7 7 7 7 6 6 6 6 6 6 6 5 5 5 5 6 5 5 5 5 4 3 3
3 4 5 4 4 6 7 3 2 4 4 4 5 4 3 3 1 5 3 3 4 4 4 5 5 5 5 5 6 7 6 6 7 7 6 5 6 6 6 6 4 3 3 3
2 2 4 5 5 7 6 3 3 5 7 4 4 5 5 6 6 4 2 2 3 3 4 5 5 6 6 6 7 7 6 7 7 5 4 4 5 6 5 4 3 4 3 3
5 4 4 4 4 7 2 3 5 6 4 2 4 4 5 4 2 1 2 2 3 2 3 5 6 5 4 6 8 7 7 6 4 5 5 4 4 4 4 5 4 4 4 4
4 5 5 7 7 4 2 4 4 2 3 3 3 3 4 2 2 1 1 2 2 3 3 4 6 5 4 5 7 8 6 5 5 5 5 4 4 3 4 5 5 4 4 3
3 2 2 3 5 4 4 3 3 2 3 3 2 2 3 3 2 2 1 1 2 2 3 3 5 5 4 4 5 5 4 5 6 6 5 4 4 3 3 3 4 4 4 4
4 3 2 4 5 3 4 3 3 3 3 2 1 1 3 4 2 3 2 2 2 2 3 4 5 5 5 4 4 3 5 6 6 5 4 4 4 4 3 3 3 5 5 5
4 5 6 6 6 4 5 5 3 2 2 1 1 2 1 2 3 2 2 2 2 2 3 4 4 4 4 4 4 4 5 6 7 5 4 4 3 3 3 3 1 1 2 3
Wind_Direction
52 85 161 196 183 164 146 147 181 241 216 161 203 226 222 193 187 191 197 201 210 221 228 195 165 150 135 130 137 147 144 145 134 117 107 90 65 34 32 35 43 49 60 64
57 232 217 171 150 129 134 144 183 293 209 161 206 250 231 198 203 199 199 203 210 213 205 197 180 167 164 162 162 159 161 161 157 138 125 118 114 80 48 22 36 36 48 53
167 229 173 143 148 146 170 178 189 203 50 56 91 309 250 227 211 208 205 202 207 208 202 201 192 187 176 177 178 174 167 162 158 140 112 87 64 44 31 20 17 15 38 53
193 231 149 150 178 158 216 204 166 151 113 293 110 288 277 228 219 218 215 206 209 211 202 199 196 193 191 195 184 169 164 160 154 147 138 133 128 126 156 331 11 24 36 52
214 175 159 184 203 166 192 138 118 110 125 12 333 223 284 218 230 232 221 212 209 205 199 199 199 197 195 188 177 168 158 158 155 148 144 134 129 133 105 60 55 40 29 41
223 204 180 189 162 142 128 77 62 51 69 312 241 189 280 233 221 229 217 213 206 200 199 199 194 182 183 177 169 164 162 167 160 153 150 150 150 150 133 114 91 45 23 24
329 304 226 144 108 79 98 96 51 8 9 261 247 202 254 252 230 221 213 209 202 193 191 190 185 184 185 181 178 173 168 173 167 162 166 168 166 161 161 167 170 151 87 13
165 263 229 178 164 166 164 142 155 187 220 278 289 237 256 267 257 225 209 196 185 185 188 192 192 188 189 188 180 176 178 180 173 173 180 173 163 155 168 177 179 179 184 206
171 233 264 198 156 142 143 168 160 135 164 277 282 287 300 308 338 42 164 167 185 190 191 195 192 188 189 187 185 183 179 179 180 180 176 173 169 171 180 175 178 181 186 179
156 192 256 195 87 54 146 144 111 122 152 254 294 287 269 293 291 282 199 198 199 193 191 192 191 190 189 187 183 178 178 183 179 173 179 181 181 183 180 167 180 189 186 157
142 153 276 105 172 175 118 124 125 130 156 159 256 274 239 238 247 236 226 210 197 191 190 190 193 189 181 171 171 176 180 176 174 177 179 175 179 178 178 185 195 193 178 165
138 126 188 240 243 178 163 168 151 157 203 172 177 267 278 247 248 229 223 208 194 192 188 184 181 170 169 174 177 180 181 183 184 177 173 180 178 173 185 199 197 183 176 172
137 117 101 349 339 73 166 167 159 135 129 159 179 261 302 328 302 240 212 195 182 177 169 164 163 168 176 179 181 183 184 187 180 168 171 177 178 182 197 201 187 176 168 166
118 128 167 193 211 193 199 188 162 140 161 198 218 246 290 297 282 269 229 190 175 170 166 162 170 180 181 181 182 184 187 182 175 170 174 184 193 195 196 187 179 177 172 172
115 156 202 221 215 191 209 207 185 186 189 194 225 229 251 246 231 230 211 177 162 166 170 177 182 183 180 179 181 181 183 179 175 172 182 196 195 186 179 180 182 175 175 184
109 158 175 251 227 215 235 224 205 210 204 211 230 252 250 246 211 201 197 182 183 188 188 187 184 181 184 186 185 180 184 182 172 177 191 190 178 175 178 181 178 173 179 178
154 141 143 241 269 43 255 225 207 204 200 189 217 234 225 215 219 212 203 194 197 199 194 190 189 189 191 190 184 186 187 173 170 179 183 180 177 178 181 173 168 178 182 176
154 137 140 165 127 226 244 235 200 201 219 207 220 230 209 216 226 226 205 197 204 202 197 195 191 190 191 184 179 175 164 167 176 180 184 182 179 183 176 166 174 178 173 178
171 148 141 151 203 265 284 245 186 186 234 215 212 234 228 216 33 298 224 199 206 202 195 194 190 184 176 174 171 160 163 170 175 187 192 188 181 177 172 176 181 174 169 183
117 133 139 158 185 231 248 267 208 135 259 245 202 214 203 129 157 259 244 209 213 200 186 179 168 156 163 172 161 158 168 174 191 200 200 188 180 177 180 185 177 168 170 187
116 121 165 185 213 253 261 284 111 155 238 252 200 195 176 187 210 238 234 216 202 189 175 161 155 165 178 167 159 165 173 194 204 193 181 174 179 182 178 169 163 160 162 161
173 168 181 167 204 246 282 120 171 220 253 234 209 197 193 215 233 218 189 190 177 169 155 154 159 174 168 160 162 171 192 202 178 165 163 171 176 177 165 158 160 156 157 161
192 188 186 191 214 243 233 216 247 238 242 235 218 221 188 186 205 206 200 187 178 173 168 160 160 160 158 167 170 183 198 171 154 154 163 170 166 167 159 160 161 158 160 165
245 173 164 239 260 267 276 285 304 279 257 255 224 194 173 177 182 176 179 185 175 171 166 160 148 150 167 178 183 190 170 153 154 162 168 162 160 161 157 158 163 165 173 180
217 174 186 241 266 295 298 290 297 314 324 349 43 159 173 159 166 171 175 195 185 173 162 158 164 168 177 173 174 167 157 152 155 164 166 164 165 166 166 172 181 183 192 187
204 188 190 224 227 211 258 282 296 315 314 319 56 27 27 160 169 166 175 203 177 168 162 156 164 168 170 165 161 159 157 156 153 156 164 167 165 163 163 163 166 222 200 198